QPF
0.00 0.00 0.00 0.00 0.00 0.00 0.00 0.00 0.00 0.00 0.00 0.00 0.00 0.01 0.01 0.00 0.01 0.01 0.01 0.00 0.00 0.00 0.00 0.00 0.01 0.01 0.03 0.05 0.05 0.04 0.03 0.02 0.02 0.01 0.01 0.01 0.01 0.01 0.01 0.00 0.00 0.01 0.01 0.00
0.00 0.00 0.00 0.00 0.00 0.00 0.00 0.00 0.00 0.00 0.01 0.00 0.00 0.01 0.01 0.00 0.01 0.01 0.01 0.01 0.01 0.00 0.00 0.01 0.01 0.01 0.02 0.04 0.03 0.03 0.03 0.02 0.02 0.01 0.01 0.01 0.01 0.01 0.00 0.01 0.01 0.01 0.00 0.00
0.00 0.00 0.00 0.00 0.00 0.00 0.00 0.00 0.00 0.00 0.01 0.00 0.01 0.01 0.01 0.01 0.00 0.01 0.01 0.01 0.01 0.01 0.01 0.01 0.01 0.01 0.01 0.02 0.02 0.02 0.03 0.02 0.01 0.01 0.01 0.01 0.01 0.00 0.00 0.00 0.00 0.00 0.00 0.00
0.00 0.00 0.00 0.00 0.00 0.00 0.00 0.00 0.00 0.00 0.00 0.00 0.00 0.01 0.01 0.00 0.00 0.00 0.01 0.01 0.01 0.01 0.01 0.01 0.02 0.02 0.02 0.02 0.03 0.03 0.02 0.02 0.01 0.01 0.01 0.01 0.00 0.00 0.01 0.00 0.00 0.00 0.00 0.01
0.00 0.00 0.00 0.00 0.00 0.00 0.00 0.00 0.00 0.00 0.00 0.00 0.01 0.01 0.01 0.00 0.00 0.00 0.01 0.01 0.01 0.01 0.01 0.01 0.01 0.01 0.01 0.01 0.02 0.02 0.02 0.02 0.02 0.02 0.02 0.01 0.02 0.02 0.02 0.02 0.02 0.02 0.02 0.02
0.00 0.00 0.00 0.00 0.00 0.00 0.00 0.00 0.00 0.00 0.00 0.01 0.01 0.02 0.01 0.00 0.01 0.01 0.00 0.00 0.00 0.00 0.00 0.00 0.00 0.00 0.00 0.00 0.00 0.01 0.01 0.01 0.01 0.01 0.01 0.01 0.01 0.01 0.01 0.02 0.01 0.01 0.01 0.01
0.00 0.00 0.00 0.00 0.00 0.00 0.01 0.01 0.00 0.00 0.00 0.00 0.01 0.01 0.01 0.01 0.01 0.00 0.00 0.00 0.00 0.00 0.00 0.00 0.00 0.00 0.00 0.00 0.00 0.01 0.01 0.00 0.00 0.00 0.00 0.01 0.01 0.01 0.01 0.01 0.00 0.01 0.01 0.01
0.00 0.00 0.00 0.00 0.00 0.00 0.01 0.00 0.00 0.00 0.00 0.00 0.00 0.00 0.00 0.01 0.01 0.01 0.00 0.00 0.00 0.00 0.00 0.00 0.00 0.00 0.01 0.01 0.01 0.01 0.01 0.01 0.00 0.00 0.00 0.00 0.00 0.00 0.01 0.01 0.00 0.00 0.01 0.01
0.00 0.00 0.00 0.00 0.00 0.00 0.00 0.00 0.00 0.00 0.00 0.00 0.01 0.01 0.00 0.00 0.01 0.00 0.00 0.00 0.00 0.00 0.00 0.00 0.00 0.00 0.01 0.01 0.01 0.01 0.01 0.01 0.00 0.00 0.00 0.00 0.00 0.01 0.01 0.01 0.01 0.01 0.01 0.01
0.00 0.00 0.00 0.00 0.00 0.00 0.00 0.00 0.00 0.00 0.00 0.00 0.01 0.00 0.00 0.00 0.00 0.00 0.00 0.00 0.00 0.00 0.01 0.01 0.01 0.01 0.01 0.01 0.01 0.01 0.01 0.01 0.01 0.01 0.01 0.01 0.01 0.01 0.02 0.01 0.01 0.01 0.01 0.00
0.00 0.00 0.00 0.00 0.00 0.01 0.01 0.00 0.00 0.00 0.00 0.01 0.01 0.00 0.00 0.00 0.00 0.00 0.00 0.00 0.00 0.00 0.01 0.01 0.01 0.01 0.01 0.02 0.01 0.01 0.01 0.01 0.03 0.03 0.02 0.02 0.02 0.01 0.01 0.02 0.02 0.02 0.01 0.01
0.01 0.00 0.01 0.01 0.00 0.01 0.01 0.00 0.00 0.00 0.00 0.00 0.00 0.00 0.00 0.00 0.00 0.00 0.00 0.00 0.00 0.00 0.01 0.01 0.01 0.01 0.01 0.02 0.01 0.01 0.01 0.02 0.03 0.03 0.02 0.03 0.02 0.01 0.01 0.01 0.01 0.01 0.02 0.01
0.00 0.00 0.00 0.00 0.00 0.00 0.01 0.00 0.00 0.00 0.00 0.00 0.00 0.00 0.00 0.00 0.00 0.00 0.00 0.00 0.00 0.01 0.01 0.02 0.04 0.04 0.04 0.05 0.05 0.04 0.03 0.03 0.03 0.03 0.03 0.03 0.03 0.02 0.01 0.02 0.02 0.01 0.02 0.01
0.01 0.01 0.01 0.00 0.01 0.01 0.01 0.01 0.01 0.00 0.00 0.00 0.00 0.00 0.01 0.01 0.00 0.00 0.00 0.00 0.00 0.01 0.02 0.02 0.03 0.04 0.07 0.09 0.08 0.07 0.07 0.05 0.05 0.04 0.05 0.04 0.03 0.02 0.02 0.02 0.02 0.02 0.02 0.02
0.03 0.02 0.02 0.01 0.01 0.01 0.01 0.01 0.02 0.01 0.01 0.01 0.01 0.01 0.01 0.01 0.00 0.00 0.00 0.00 0.01 0.01 0.02 0.02 0.02 0.02 0.02 0.03 0.03 0.03 0.04 0.03 0.04 0.05 0.04 0.03 0.03 0.02 0.02 0.03 0.03 0.03 0.03 0.03
0.03 0.02 0.01 0.02 0.01 0.01 0.02 0.03 0.02 0.02 0.02 0.02 0.01 0.01 0.01 0.00 0.00 0.01 0.01 0.00 0.01 0.01 0.01 0.02 0.02 0.02 0.02 0.02 0.02 0.02 0.02 0.02 0.03 0.03 0.04 0.04 0.03 0.03 0.03 0.03 0.03 0.03 0.03 0.04
0.01 0.02 0.02 0.02 0.01 0.02 0.02 0.03 0.02 0.02 0.03 0.02 0.01 0.01 0.01 0.01 0.01 0.01 0.01 0.01 0.01 0.01 0.01 0.01 0.01 0.02 0.03 0.03 0.03 0.03 0.03 0.03 0.04 0.05 0.05 0.05 0.06 0.05 0.04 0.03 0.03 0.04 0.04 0.04
0.01 0.01 0.02 0.02 0.01 0.02 0.02 0.02 0.02 0.02 0.02 0.01 0.01 0.01 0.01 0.01 0.01 0.01 0.01 0.01 0.02 0.02 0.02 0.02 0.03 0.03 0.04 0.05 0.05 0.04 0.04 0.04 0.04 0.05 0.06 0.06 0.05 0.06 0.06 0.05 0.04 0.04 0.04 0.03
0.01 0.02 0.02 0.01 0.01 0.01 0.01 0.01 0.01 0.01 0.01 0.01 0.02 0.02 0.02 0.02 0.02 0.02 0.02 0.03 0.03 0.03 0.03 0.04 0.05 0.05 0.04 0.04 0.03 0.03 0.03 0.04 0.06 0.07 0.07 0.07 0.06 0.05 0.05 0.04 0.04 0.04 0.04 0.04
0.02 0.02 0.02 0.01 0.01 0.01 0.00 0.00 0.01 0.01 0.01 0.01 0.02 0.01 0.01 0.02 0.02 0.02 0.03 0.03 0.03 0.02 0.03 0.03 0.03 0.03 0.02 0.02 0.02 0.02 0.02 0.03 0.05 0.05 0.04 0.04 0.05 0.05 0.04 0.03 0.03 0.03 0.03 0.03
0.02 0.02 0.02 0.01 0.01 0.01 0.01 0.01 0.02 0.02 0.02 0.02 0.02 0.02 0.02 0.02 0.03 0.03 0.03 0.03 0.02 0.01 0.01 0.02 0.01 0.01 0.01 0.02 0.02 0.02 0.02 0.03 0.03 0.02 0.03 0.03 0.03 0.04 0.04 0.03 0.02 0.02 0.02 0.02
0.03 0.02 0.02 0.02 0.02 0.02 0.01 0.01 0.02 0.02 0.02 0.02 0.02 0.02 0.03 0.03 0.03 0.04 0.03 0.03 0.02 0.01 0.01 0.01 0.01 0.01 0.02 0.02 0.01 0.02 0.02 0.03 0.03 0.02 0.03 0.04 0.05 0.04 0.05 0.05 0.03 0.03 0.03 0.03
0.03 0.04 0.04 0.04 0.04 0.03 0.01 0.01 0.01 0.01 0.02 0.02 0.02 0.03 0.04 0.04 0.03 0.03 0.03 0.02 0.02 0.02 0.01 0.01 0.01 0.02 0.02 0.01 0.01 0.02 0.02 0.03 0.04 0.04 0.03 0.04 0.05 0.06 0.06 0.06 0.05 0.03 0.03 0.02
0.04 0.06 0.06 0.05 0.04 0.03 0.02 0.01 0.01 0.01 0.02 0.02 0.03 0.03 0.03 0.03 0.03 0.03 0.03 0.02 0.02 0.02 0.02 0.02 0.02 0.02 0.02 0.02 0.01 0.01 0.01 0.02 0.03 0.03 0.02 0.02 0.02 0.03 0.04 0.05 0.05 0.05 0.03 0.03
0.05 0.05 0.05 0.04 0.02 0.02 0.02 0.02 0.01 0.02 0.02 0.02 0.02 0.02 0.02 0.03 0.03 0.02 0.02 0.02 0.02 0.02 0.02 0.02 0.02 0.02 0.02 0.02 0.02 0.01 0.01 0.01 0.01 0.01 0.01 0.02 0.02 0.02 0.03 0.03 0.04 0.04 0.04 0.03
0.04 0.04 0.04 0.03 0.02 0.02 0.03 0.03 0.03 0.03 0.03 0.03 0.02 0.02 0.02 0.04 0.04 0.03 0.02 0.02 0.02 0.02 0.01 0.01 0.01 0.02 0.02 0.02 0.02 0.02 0.02 0.02 0.01 0.01 0.01 0.02 0.02 0.02 0.03 0.03 0.03 0.04 0.04 0.03
0.03 0.03 0.03 0.03 0.02 0.02 0.04 0.05 0.04 0.03 0.03 0.03 0.03 0.03 0.04 0.05 0.05 0.04 0.03 0.02 0.02 0.02 0.02 0.03 0.03 0.03 0.02 0.02 0.02 0.03 0.04 0.03 0.02 0.01 0.01 0.02 0.03 0.03 0.03 0.04 0.04 0.03 0.03 0.03
MSLP
1009.57 1009.36 1009.11 1008.84 1008.58 1008.33 1008.08 1007.85 1007.61 1007.38 1007.15 1006.93 1006.72 1006.54 1006.38 1006.24 1006.11 1005.97 1005.81 1005.63 1005.43 1005.23 1005.06 1004.95 1004.93 1005.03 1005.28 1005.69 1006.23 1006.90 1007.64 1008.44 1009.24 1010.03 1010.79 1011.51 1012.19 1012.84 1013.47 1014.08 1014.68 1015.26 1015.81 1016.32
1009.94 1009.63 1009.23 1008.79 1008.32 1007.87 1007.45 1007.08 1006.76 1006.51 1006.33 1006.22 1006.16 1006.14 1006.15 1006.16 1006.15 1006.10 1005.99 1005.82 1005.60 1005.35 1005.11 1004.92 1004.83 1004.86 1005.04 1005.38 1005.88 1006.51 1007.25 1008.05 1008.88 1009.71 1010.53 1011.31 1012.06 1012.77 1013.46 1014.12 1014.75 1015.35 1015.92 1016.44
1010.30 1009.91 1009.41 1008.83 1008.22 1007.62 1007.07 1006.59 1006.22 1005.95 1005.80 1005.76 1005.80 1005.91 1006.03 1006.15 1006.22 1006.23 1006.14 1005.97 1005.72 1005.43 1005.13 1004.87 1004.71 1004.67 1004.78 1005.07 1005.52 1006.12 1006.84 1007.63 1008.48 1009.35 1010.21 1011.05 1011.86 1012.64 1013.38 1014.09 1014.76 1015.39 1015.98 1016.53
1010.58 1010.16 1009.60 1008.96 1008.28 1007.60 1006.98 1006.45 1006.04 1005.78 1005.65 1005.65 1005.75 1005.91 1006.10 1006.27 1006.38 1006.39 1006.30 1006.10 1005.82 1005.47 1005.12 1004.80 1004.58 1004.48 1004.53 1004.77 1005.17 1005.73 1006.42 1007.20 1008.05 1008.94 1009.83 1010.72 1011.58 1012.41 1013.20 1013.96 1014.67 1015.35 1015.97 1016.54
1010.75 1010.34 1009.79 1009.15 1008.47 1007.79 1007.17 1006.64 1006.24 1005.98 1005.87 1005.89 1006.02 1006.20 1006.40 1006.56 1006.65 1006.64 1006.51 1006.27 1005.93 1005.54 1005.13 1004.76 1004.48 1004.33 1004.33 1004.51 1004.87 1005.39 1006.04 1006.80 1007.63 1008.52 1009.42 1010.33 1011.22 1012.08 1012.92 1013.71 1014.47 1015.18 1015.84 1016.45
1010.79 1010.42 1009.93 1009.35 1008.73 1008.12 1007.55 1007.08 1006.72 1006.50 1006.41 1006.44 1006.56 1006.73 1006.89 1007.02 1007.06 1006.99 1006.81 1006.50 1006.11 1005.67 1005.21 1004.80 1004.47 1004.28 1004.24 1004.37 1004.68 1005.15 1005.76 1006.47 1007.28 1008.13 1009.02 1009.91 1010.81 1011.68 1012.53 1013.35 1014.14 1014.88 1015.59 1016.24
1010.68 1010.37 1009.97 1009.50 1009.00 1008.50 1008.04 1007.66 1007.38 1007.21 1007.15 1007.18 1007.28 1007.41 1007.52 1007.58 1007.55 1007.42 1007.17 1006.81 1006.37 1005.88 1005.39 1004.95 1004.60 1004.38 1004.30 1004.40 1004.67 1005.08 1005.63 1006.29 1007.04 1007.84 1008.68 1009.54 1010.40 1011.25 1012.09 1012.92 1013.72 1014.49 1015.23 1015.94
1010.43 1010.19 1009.90 1009.55 1009.18 1008.82 1008.50 1008.23 1008.04 1007.93 1007.91 1007.95 1008.03 1008.11 1008.17 1008.16 1008.07 1007.87 1007.56 1007.16 1006.69 1006.18 1005.69 1005.24 1004.88 1004.65 1004.56 1004.63 1004.85 1005.22 1005.71 1006.30 1006.96 1007.69 1008.45 1009.24 1010.04 1010.84 1011.65 1012.45 1013.25 1014.04 1014.81 1015.56
1010.06 1009.89 1009.69 1009.46 1009.23 1009.01 1008.81 1008.66 1008.56 1008.52 1008.53 1008.58 1008.64 1008.69 1008.69 1008.63 1008.49 1008.25 1007.91 1007.50 1007.03 1006.53 1006.06 1005.63 1005.30 1005.08 1004.99 1005.05 1005.24 1005.56 1005.98 1006.49 1007.07 1007.70 1008.36 1009.06 1009.77 1010.50 1011.25 1012.01 1012.79 1013.58 1014.37 1015.16
1009.61 1009.48 1009.35 1009.23 1009.10 1008.99 1008.91 1008.85 1008.83 1008.84 1008.88 1008.93 1008.98 1009.00 1008.98 1008.89 1008.73 1008.48 1008.15 1007.76 1007.32 1006.88 1006.45 1006.08 1005.80 1005.61 1005.55 1005.60 1005.77 1006.05 1006.41 1006.84 1007.32 1007.85 1008.40 1008.99 1009.60 1010.24 1010.91 1011.62 1012.37 1013.15 1013.95 1014.76
1009.11 1009.00 1008.92 1008.85 1008.80 1008.77 1008.75 1008.76 1008.78 1008.83 1008.88 1008.94 1008.98 1008.99 1008.96 1008.87 1008.72 1008.50 1008.21 1007.87 1007.51 1007.14 1006.80 1006.51 1006.28 1006.15 1006.12 1006.19 1006.35 1006.59 1006.90 1007.26 1007.65 1008.08 1008.53 1009.01 1009.51 1010.06 1010.66 1011.31 1012.01 1012.77 1013.57 1014.39
1008.61 1008.50 1008.43 1008.39 1008.37 1008.37 1008.38 1008.41 1008.44 1008.49 1008.54 1008.59 1008.63 1008.64 1008.62 1008.55 1008.44 1008.27 1008.06 1007.81 1007.54 1007.27 1007.02 1006.81 1006.67 1006.60 1006.61 1006.69 1006.85 1007.07 1007.33 1007.63 1007.95 1008.29 1008.66 1009.04 1009.46 1009.93 1010.46 1011.05 1011.71 1012.44 1013.22 1014.04
1008.12 1008.00 1007.93 1007.88 1007.86 1007.85 1007.86 1007.87 1007.89 1007.91 1007.94 1007.97 1008.00 1008.02 1008.02 1007.99 1007.93 1007.83 1007.71 1007.55 1007.38 1007.22 1007.07 1006.95 1006.88 1006.86 1006.90 1007.01 1007.17 1007.37 1007.60 1007.85 1008.12 1008.41 1008.70 1009.03 1009.39 1009.79 1010.27 1010.81 1011.44 1012.14 1012.90 1013.70
1007.67 1007.53 1007.44 1007.38 1007.34 1007.30 1007.27 1007.25 1007.22 1007.20 1007.19 1007.20 1007.21 1007.23 1007.25 1007.26 1007.26 1007.24 1007.20 1007.14 1007.06 1006.99 1006.92 1006.87 1006.85 1006.88 1006.95 1007.06 1007.22 1007.40 1007.61 1007.84 1008.08 1008.33 1008.60 1008.89 1009.22 1009.60 1010.04 1010.56 1011.15 1011.82 1012.56 1013.33
1007.22 1007.08 1006.99 1006.91 1006.84 1006.77 1006.69 1006.61 1006.53 1006.46 1006.41 1006.37 1006.36 1006.38 1006.41 1006.46 1006.51 1006.55 1006.58 1006.60 1006.60 1006.59 1006.58 1006.58 1006.59 1006.64 1006.71 1006.83 1006.97 1007.14 1007.34 1007.55 1007.79 1008.03 1008.30 1008.59 1008.92 1009.30 1009.74 1010.25 1010.83 1011.47 1012.17 1012.90
1006.74 1006.62 1006.53 1006.45 1006.36 1006.26 1006.14 1006.01 1005.88 1005.75 1005.64 1005.57 1005.54 1005.54 1005.58 1005.65 1005.73 1005.82 1005.90 1005.97 1006.02 1006.06 1006.08 1006.10 1006.12 1006.16 1006.22 1006.31 1006.44 1006.60 1006.79 1007.00 1007.24 1007.51 1007.80 1008.12 1008.47 1008.88 1009.33 1009.85 1010.42 1011.04 1011.71 1012.40
1006.19 1006.10 1006.03 1005.95 1005.87 1005.75 1005.60 1005.43 1005.25 1005.07 1004.92 1004.81 1004.74 1004.73 1004.77 1004.84 1004.95 1005.07 1005.18 1005.28 1005.36 1005.41 1005.44 1005.45 1005.46 1005.48 1005.52 1005.58 1005.69 1005.83 1006.01 1006.24 1006.50 1006.79 1007.13 1007.49 1007.89 1008.34 1008.82 1009.35 1009.92 1010.53 1011.17 1011.82
1005.50 1005.46 1005.42 1005.37 1005.29 1005.17 1005.01 1004.81 1004.60 1004.38 1004.19 1004.04 1003.95 1003.92 1003.95 1004.03 1004.14 1004.27 1004.40 1004.52 1004.61 1004.66 1004.69 1004.69 1004.67 1004.66 1004.67 1004.70 1004.78 1004.91 1005.10 1005.34 1005.62 1005.96 1006.34 1006.75 1007.21 1007.70 1008.22 1008.77 1009.34 1009.94 1010.54 1011.15
1004.66 1004.66 1004.66 1004.64 1004.58 1004.46 1004.29 1004.08 1003.84 1003.59 1003.37 1003.19 1003.07 1003.03 1003.04 1003.12 1003.24 1003.38 1003.53 1003.66 1003.75 1003.81 1003.83 1003.82 1003.79 1003.75 1003.73 1003.75 1003.81 1003.94 1004.12 1004.38 1004.69 1005.07 1005.49 1005.96 1006.47 1006.99 1007.54 1008.11 1008.68 1009.26 1009.84 1010.40
1003.67 1003.70 1003.73 1003.73 1003.67 1003.56 1003.39 1003.16 1002.90 1002.63 1002.39 1002.18 1002.05 1001.98 1001.99 1002.07 1002.20 1002.35 1002.51 1002.66 1002.78 1002.85 1002.88 1002.87 1002.84 1002.80 1002.77 1002.78 1002.84 1002.96 1003.16 1003.43 1003.77 1004.18 1004.65 1005.16 1005.70 1006.26 1006.83 1007.40 1007.97 1008.53 1009.07 1009.60
1002.58 1002.61 1002.64 1002.64 1002.58 1002.46 1002.27 1002.02 1001.74 1001.45 1001.18 1000.96 1000.81 1000.75 1000.76 1000.84 1000.98 1001.16 1001.35 1001.53 1001.67 1001.78 1001.84 1001.85 1001.84 1001.82 1001.81 1001.83 1001.89 1002.03 1002.24 1002.53 1002.90 1003.34 1003.83 1004.37 1004.93 1005.51 1006.09 1006.66 1007.22 1007.75 1008.27 1008.77
1001.44 1001.44 1001.44 1001.41 1001.33 1001.17 1000.95 1000.67 1000.37 1000.06 999.77 999.54 999.39 999.32 999.34 999.45 999.61 999.83 1000.05 1000.28 1000.47 1000.62 1000.73 1000.79 1000.82 1000.83 1000.85 1000.90 1000.99 1001.15 1001.38 1001.69 1002.08 1002.54 1003.05 1003.60 1004.18 1004.76 1005.34 1005.91 1006.44 1006.96 1007.45 1007.93
1000.30 1000.25 1000.19 1000.10 999.96 999.75 999.48 999.17 998.83 998.50 998.20 997.97 997.82 997.76 997.81 997.95 998.15 998.41 998.69 998.96 999.22 999.43 999.59 999.71 999.79 999.86 999.92 1000.00 1000.12 1000.31 1000.56 1000.89 1001.30 1001.77 1002.29 1002.86 1003.44 1004.02 1004.59 1005.14 1005.67 1006.17 1006.64 1007.10
999.20 999.06 998.91 998.74 998.51 998.23 997.91 997.55 997.18 996.83 996.54 996.31 996.19 996.17 996.25 996.43 996.68 996.99 997.33 997.67 997.98 998.25 998.48 998.65 998.79 998.90 999.00 999.12 999.28 999.49 999.77 1000.11 1000.53 1001.01 1001.55 1002.11 1002.70 1003.28 1003.85 1004.39 1004.91 1005.39 1005.86 1006.31
998.12 997.87 997.61 997.33 997.01 996.65 996.26 995.86 995.47 995.12 994.84 994.65 994.57 994.60 994.75 994.99 995.31 995.68 996.07 996.47 996.84 997.16 997.44 997.66 997.84 997.98 998.12 998.27 998.45 998.68 998.97 999.33 999.76 1000.25 1000.79 1001.36 1001.95 1002.54 1003.11 1003.66 1004.18 1004.67 1005.14 1005.60
997.01 996.63 996.25 995.84 995.41 994.97 994.52 994.10 993.71 993.39 993.15 993.03 993.02 993.13 993.36 993.68 994.08 994.52 994.98 995.43 995.84 996.21 996.52 996.76 996.96 997.13 997.28 997.44 997.63 997.87 998.17 998.54 998.98 999.48 1000.03 1000.61 1001.22 1001.82 1002.41 1002.97 1003.51 1004.02 1004.50 1004.98
995.79 995.26 994.74 994.21 993.68 993.16 992.67 992.24 991.87 991.61 991.46 991.43 991.53 991.76 992.10 992.52 993.01 993.54 994.06 994.56 995.01 995.41 995.73 995.99 996.19 996.35 996.50 996.66 996.84 997.08 997.38 997.75 998.19 998.71 999.27 999.88 1000.51 1001.14 1001.76 1002.36 1002.92 1003.47 1003.99 1004.50
Thickness
5793 5799 5799 5796 5797 5798 5796 5800 5797 5801 5803 5809 5811 5809 5808 5808 5807 5805 5802 5801 5799 5798 5796 5794 5791 5789 5787 5785 5783 5780 5776 5772 5769 5766 5763 5760 5757 5754 5751 5749 5748 5745 5742 5740
5779 5789 5790 5787 5792 5794 5794 5797 5797 5798 5798 5812 5811 5807 5802 5801 5800 5797 5795 5794 5793 5792 5790 5788 5786 5783 5781 5778 5776 5774 5770 5767 5765 5762 5759 5756 5753 5750 5747 5745 5743 5740 5737 5735
5769 5780 5777 5771 5787 5789 5790 5795 5795 5790 5797 5802 5797 5795 5795 5795 5794 5792 5790 5789 5787 5786 5785 5783 5781 5779 5775 5773 5771 5768 5765 5763 5760 5757 5754 5751 5749 5746 5742 5740 5738 5735 5733 5731
5764 5759 5744 5777 5793 5792 5788 5790 5793 5792 5793 5794 5791 5790 5791 5792 5789 5785 5785 5783 5782 5783 5781 5780 5778 5776 5772 5769 5765 5762 5760 5757 5755 5752 5749 5747 5744 5741 5738 5736 5733 5731 5729 5726
5754 5751 5758 5772 5779 5780 5775 5774 5787 5785 5785 5786 5786 5782 5780 5784 5784 5781 5779 5778 5777 5778 5777 5774 5773 5770 5767 5763 5760 5757 5755 5752 5751 5748 5745 5742 5738 5736 5734 5731 5728 5726 5724 5721
5746 5739 5742 5764 5776 5781 5772 5760 5778 5779 5775 5776 5774 5767 5770 5775 5776 5775 5774 5773 5772 5772 5771 5767 5765 5764 5760 5757 5754 5751 5750 5747 5745 5742 5740 5737 5734 5731 5729 5726 5723 5721 5718 5716
5740 5737 5750 5763 5770 5769 5748 5753 5769 5771 5770 5769 5765 5765 5767 5769 5767 5766 5764 5764 5763 5763 5761 5759 5757 5754 5751 5749 5747 5747 5745 5742 5739 5736 5734 5732 5728 5725 5723 5720 5718 5715 5712 5710
5736 5731 5736 5756 5757 5751 5751 5760 5762 5762 5762 5760 5758 5757 5758 5757 5756 5755 5754 5754 5754 5752 5750 5749 5748 5745 5742 5740 5741 5740 5737 5734 5732 5730 5728 5726 5722 5719 5717 5713 5710 5708 5706 5704
5735 5735 5740 5747 5748 5751 5753 5750 5750 5752 5752 5750 5747 5746 5746 5746 5746 5745 5745 5744 5744 5743 5740 5739 5738 5736 5733 5732 5732 5730 5728 5726 5724 5723 5721 5719 5716 5713 5710 5707 5705 5704 5702 5700
5724 5730 5734 5738 5741 5742 5743 5742 5743 5744 5743 5741 5736 5735 5736 5736 5736 5735 5734 5734 5735 5733 5731 5729 5729 5728 5726 5725 5724 5722 5720 5718 5717 5716 5714 5712 5710 5709 5706 5702 5700 5697 5696 5694
5712 5720 5724 5727 5730 5732 5733 5734 5734 5734 5734 5731 5727 5725 5725 5725 5725 5726 5726 5725 5725 5723 5721 5720 5720 5718 5718 5717 5716 5714 5713 5711 5711 5709 5707 5704 5703 5700 5698 5696 5694 5689 5689 5687
5708 5714 5715 5716 5722 5724 5722 5722 5722 5722 5721 5722 5720 5717 5717 5716 5717 5717 5717 5716 5715 5714 5713 5713 5712 5710 5709 5709 5707 5705 5704 5704 5704 5703 5700 5698 5695 5692 5687 5686 5682 5679 5677 5675
5706 5710 5711 5712 5713 5714 5713 5713 5713 5713 5712 5711 5711 5710 5709 5708 5708 5708 5707 5707 5706 5705 5705 5704 5703 5701 5701 5700 5699 5697 5696 5696 5695 5694 5693 5691 5689 5686 5682 5677 5673 5671 5668 5666
5697 5697 5697 5700 5701 5703 5703 5704 5705 5704 5703 5703 5701 5701 5700 5699 5699 5699 5698 5698 5698 5697 5696 5695 5694 5693 5692 5691 5689 5688 5687 5687 5686 5685 5685 5684 5682 5680 5677 5674 5671 5668 5663 5658
5688 5690 5691 5692 5692 5693 5693 5694 5693 5693 5692 5692 5692 5691 5690 5689 5689 5689 5690 5690 5689 5688 5687 5686 5685 5684 5684 5682 5680 5680 5679 5679 5678 5678 5677 5677 5675 5673 5671 5668 5666 5665 5661 5655
5679 5682 5683 5682 5681 5683 5684 5683 5683 5683 5682 5682 5682 5681 5681 5681 5681 5681 5680 5680 5678 5678 5678 5677 5676 5676 5675 5674 5673 5673 5672 5669 5668 5669 5670 5669 5667 5666 5664 5662 5660 5658 5656 5653
5668 5668 5670 5671 5672 5673 5674 5675 5674 5675 5674 5674 5673 5673 5672 5671 5671 5671 5671 5672 5671 5670 5669 5668 5667 5667 5666 5666 5665 5666 5666 5664 5660 5661 5662 5662 5660 5658 5656 5654 5652 5651 5649 5646
5663 5664 5664 5664 5664 5664 5664 5665 5665 5665 5665 5666 5665 5664 5663 5662 5661 5661 5662 5662 5661 5661 5661 5660 5659 5658 5657 5658 5657 5658 5658 5658 5657 5656 5655 5653 5652 5651 5649 5647 5644 5642 5641 5639
5654 5654 5655 5655 5656 5656 5656 5656 5656 5656 5657 5656 5655 5655 5655 5655 5654 5654 5654 5652 5652 5652 5652 5652 5648 5649 5649 5649 5648 5648 5650 5651 5649 5648 5646 5642 5642 5642 5641 5639 5638 5635 5633 5632
5645 5646 5646 5646 5647 5647 5647 5648 5648 5648 5649 5649 5648 5647 5647 5647 5647 5646 5645 5644 5645 5647 5645 5643 5642 5642 5641 5641 5639 5642 5642 5642 5642 5640 5639 5637 5636 5634 5633 5632 5630 5628 5626 5624
5634 5635 5636 5638 5638 5639 5640 5640 5639 5639 5640 5640 5640 5639 5639 5640 5640 5639 5637 5638 5639 5637 5636 5633 5633 5634 5634 5633 5630 5633 5634 5635 5634 5633 5632 5631 5629 5627 5625 5623 5622 5621 5619 5616
5624 5625 5626 5628 5629 5630 5632 5633 5633 5633 5633 5633 5633 5633 5632 5632 5633 5632 5631 5630 5631 5627 5627 5628 5628 5626 5625 5622 5625 5627 5627 5627 5626 5626 5625 5623 5622 5620 5618 5616 5614 5612 5610 5607
5615 5616 5617 5618 5620 5621 5623 5624 5625 5626 5626 5626 5626 5626 5626 5626 5627 5626 5625 5626 5624 5619 5619 5620 5618 5615 5613 5616 5619 5620 5620 5619 5619 5618 5617 5616 5614 5612 5610 5608 5606 5604 5602 5600
5607 5608 5609 5611 5613 5614 5615 5617 5619 5620 5621 5621 5621 5621 5620 5621 5621 5622 5621 5617 5614 5611 5612 5611 5608 5607 5605 5610 5612 5613 5612 5611 5611 5610 5609 5608 5606 5605 5603 5601 5599 5597 5595 5592
5601 5602 5604 5605 5607 5609 5610 5612 5613 5614 5615 5617 5617 5617 5617 5616 5615 5615 5614 5612 5608 5605 5607 5605 5601 5600 5602 5605 5606 5605 5605 5604 5604 5603 5601 5600 5599 5598 5595 5593 5591 5589 5587 5585
5597 5599 5600 5600 5601 5603 5606 5607 5608 5609 5610 5610 5611 5612 5611 5611 5610 5609 5607 5606 5604 5600 5600 5600 5598 5596 5598 5599 5599 5598 5598 5597 5596 5594 5594 5593 5591 5590 5588 5586 5583 5582 5580 5578
5594 5595 5595 5596 5597 5599 5600 5601 5601 5602 5603 5604 5604 5604 5604 5603 5603 5601 5600 5600 5598 5597 5596 5594 5594 5593 5593 5592 5592 5591 5590 5589 5589 5588 5587 5585 5584 5582 5580 5578 5577 5575 5574 5572